sat.trackr.live / text

‹ back to catalog

STARLINK-1413

NORAD 45689 · 2020-035AJ

PAYLOAD ACTIVE UNKNOWN

§ Identity

Operator
Country
US
Launch date
2020-06-04
Launch site
AFETR
Launch vehicle
Mass (kg)
RCS (m²)

Purposes: comms

External: N2YO · Heavens-Above · Gunter

§ Orbital elements

Epoch: 2026-05-25T01:37:11.870400Z

Period
93.90 min
Inclination
53.1584°
Eccentricity
0.0003136
Mean motion
15.33614968 rev/d
Perigee alt
462.9 km
Apogee alt
467.2 km
Semi-major
6,843.2 km
B*
1.1889e-3
RAAN
54.2307°
Arg perigee
111.9197°
Mean anomaly
248.2139°
Rev number
33,059

§ Raw data

STARLINK-14131 45689U 20035AJ  26145.06749850  .00039016  00000+0  11889-2 0  99962 45689  53.1584  54.2307 0003136 111.9197 248.2139 15.33614968330598

JSON: /api/v1/satellites/45689 · /tle

For live sub-satellite position, see the globe view (requires WebGL).

§ Visibility from observer

Set your observer location to see the next 7 days of passes ≥ 10°. The values pass through the URL so the page stays shareable.

No JS? Fill the form by hand. The geolocation button needs JavaScript.